Regional Weather Roundup
Issued by NWS

Home | Current Version | Previous Version | Text Only | Print | Product List | Glossary Off
Versions: 1 2 3 4 5 6 7 8 9 10 11 12 13 14 15 16 17 18 19 20 21 22 23 24 25 26 27 28 29 30 31 32 33 34 35 36 37 38 39 40 41 42 43 44 45 46 47 48 49 50

000
ASUS45 KABQ 221301
RWRNM
WEATHER ROUNDUP FOR NEW MEXICO
NATIONAL WEATHER SERVICE ALBUQUERQUE NM
700 AM MDT WED OCT 22 2014

NOTE: "FAIR" MEANS FEW OR NO CLOUDS BELOW 12,000 FEET AGL WITH NO
       SIGNIFICANT WEATHER OR OBSTRUCTIONS TO VISION.

      THIS PRODUCT IS RELEASED AS TWO VERSIONS.  ONE VERSION NEAR
      THE TOP OF THE HOUR CONTAINING PRELIMINARY DATA FROM ALBUQUERQUE
      AND OTHER STATIONS.  A FINAL VERSION WITH ADDITIONAL DATA IS
      ISSUED ABOUT 10 MINUTES AFTER THE HOUR.

NMZ501-503-504-510>518-221400-
NORTHWEST PLATEAU/NORTHCENTRAL MOUNTAINS

CITY           SKY/WX    TMP DP  RH WIND       PRES   REMARKS
FARMINGTON     CLEAR     43  40  89 E6        30.13R
LOS ALAMOS     CLEAR     46  45  97 CALM      30.23R
SANTA FE       FOG       47  46  97 CALM      30.19R VSB 1/2
TAOS           CLOUDY    43  37  81 N5        30.23R
ANGEL FIRE     FAIR      38  35  90 CALM      30.26R

$$
NMZ402-403-502-505>509-221400-
WESTCENTRAL MOUNTAINS/SOUTHWEST MOUNTAINS

CITY           SKY/WX    TMP DP  RH WIND       PRES   REMARKS
GALLUP         PTCLDY    38  37  97 CALM      30.20R
GRANTS         CLEAR     36  36 100 NW6       30.22R FOG     WCI  31
SILVER CITY    CLEAR     48  46  93 N8        30.16R

$$
NMZ407-409-411-412-221400-
SOUTHERN DESERTS

CITY           SKY/WX    TMP DP  RH WIND       PRES   REMARKS
LORDSBURG      FAIR      54  50  87 MISG      30.08S
DEMING         CLEAR     52  51  97 NE8       30.10R
LAS CRUCES     CLEAR     50  49  95 CALM      30.12S
HOLLOMAN AFB   PTCLDY    49  48  95 NE6       30.10S
T OR C         CLEAR     50  48  93 W5        30.13R

$$
NMZ519>523-221400-
CENTRAL VALLEYS/CENTRAL HIGHLANDS

CITY           SKY/WX    TMP DP  RH WIND       PRES   REMARKS
ALBUQUERQUE    PTCLDY    53  47  79 E3        30.16R
DOUBLE EAGLE   PTCLDY    45  43  93 CALM      30.18R
MORIARTY ARPT  FOG       44  42  94 CALM      30.20S VSB 1/4
CLINES CORNERS CLEAR     44  42  93 NW5       30.19R
BELEN          NOT AVBL
SOCORRO        FAIR      51  49  95 SW6       30.14R

$$
NMZ524>526-539-540-221400-
SOUTHCENTRAL MOUNTAINS

CITY           SKY/WX    TMP DP  RH WIND       PRES   REMARKS
RUIDOSO        CLEAR     46  45  93 SW3       30.22S

$$
NMZ527>531-221400-
NORTHEAST HIGHLANDS/NORTHEAST PLAINS

CITY           SKY/WX    TMP DP  RH WIND       PRES   REMARKS
LAS VEGAS      PTCLDY    40  39  97 N7        30.18R
RATON          MOCLDY    46  44  93 N6        30.13R
CLAYTON        PTCLDY    53  50  89 S18       30.07S

$$
NMZ532>537-221400-
EASTCENTRAL PLAINS

CITY           SKY/WX    TMP DP  RH WIND       PRES   REMARKS
TUCUMCARI      PTCLDY    60  53  77 SW14      30.08S
CANNON AFB     MOCLDY    56  55  96 S3        30.12R FOG
CLOVIS AIRPORT CLOUDY    55  54  94 S6        30.15R

$$
NMZ028-029-538-221400-
SOUTHEAST PLAINS

CITY           SKY/WX    TMP DP  RH WIND       PRES   REMARKS
ROSWELL        FOG       59  58  96 SW5       30.10R VSB 1/2
CARLSBAD       CLOUDY    60  58  92 SW3       30.09R FOG
HOBBS          CLOUDY    59  59 100 S6        30.12S


$$



USA.gov is the U.S. government's official web portal to all federal, state and local government web resources and services.